DW5948 Weather Reports


time (UTC)temp
C
wind
direction
speed
KPH
gust
KPH
rain 1hr
cm
rain 24hr
cm
rain mn
cm
humidity
%
barometer
mb
20260502163010 20 270 3.2 16.1 0.00 1.14 0.00 59 1020.9
20260502161508 20 357 3.2 11.3 0.00 1.14 0.00 61 1021.0
20260502151609 18 98 3.2 12.9 0.00 1.45 0.00 71 1020.8
20260502123024 12 328 0.0 6.4 0.00 2.08 0.00 93 1019.1
20260502121524 11 325 0.0 6.4 0.00 2.08 0.00 93 1018.9
20260502114519 11 321 1.6 9.7 0.00 2.08 0.00 93 1018.4
20260502113019 11 338 0.0 4.8 0.00 2.08 0.00 92 1018.5
20260502111522 11 316 0.0 6.4 0.00 2.08 0.00 92 1018.5
20260502110013 11 316 0.0 3.2 0.00 2.08 0.00 92 1018.1
20260502104511 11 311 0.0 3.2 0.00 2.13 0.00 92 1017.9
20260502103010 11 312 0.0 3.2 0.00 2.13 0.00 92 1017.8
20260502101510 12 36 0.0 1.6 0.00 2.13 0.00 91 1017.6
20260502080105 12 51 0.0 8.0 0.00 3.15 0.00 94 1016.1
20260502070049 12 34 0.0 6.4 0.00 3.76 0.00 94 1016.2
20260502064548 13 62 0.0 8.0 0.00 3.86 0.00 95 1016.1
20260502063047 13 4 1.6 6.4 0.00 3.86 0.00 96 1016.2
20260502061546 13 12 0.0 6.4 0.00 3.86 0.00 96 1016.0
20260502060045 13 5 0.0 11.3 0.00 3.86 0.00 96 1015.8
20260502054547 13 53 1.6 9.7 0.00 3.94 0.00 96 1015.8
20260502053052 13 28 0.0 6.4 0.00 3.94 0.00 97 1016.0
20260502051554 13 347 3.2 12.9 0.00 3.94 0.00 97 1015.7
20260502050040 13 347 0.0 11.3 0.00 3.94 0.00 97 1015.6
20260502044541 13 23 3.2 12.9 0.00 4.24 0.00 97 1015.5
20260502043039 13 59 1.6 11.3 0.00 4.24 0.00 97 1015.5
20260502040007 13 326 1.6 8.0 0.00 4.24 3.94 97 1015.5
20260502034601 13 22 3.2 8.0 0.00 4.24 3.94 97 1015.5
20260502033059 13 328 0.0 11.3 0.00 4.24 3.94 97 1015.4
20260502031558 13 6 1.6 11.3 0.00 4.24 3.94 97 1015.0
20260502030053 13 28 1.6 9.7 0.00 4.24 3.94 97 1014.6
20260502024550 13 8 1.6 11.3 0.00 4.24 3.94 97 1014.1
20260502023048 13 30 1.6 14.5 0.00 4.24 3.94 97 1013.9
20260502021544 14 357 0.0 12.9 0.00 4.24 3.94 97 1013.5
20260502020043 14 359 1.6 6.4 0.00 4.24 3.94 97 1013.4
20260502014544 14 21 0.0 8.0 0.00 4.24 3.94 97 1013.2
20260502013050 14 3 0.0 8.0 0.00 4.24 3.94 97 1013.2
20260502011557 14 7 1.6 8.0 0.00 4.24 3.94 97 1013.0
20260502010045 14 15 1.6 11.3 0.00 4.24 3.94 97 1012.3
20260502004553 15 17 1.6 14.5 0.00 4.24 3.94 97 1012.8
20260502003036 15 330 0.0 4.8 0.00 4.24 3.94 97 1012.0
20260502001538 15 11 0.0 6.4 0.00 4.24 3.94 97 1011.8
20260502000034 15 40 1.6 9.7 0.00 4.24 3.94 97 1011.7
20260501234539 15 24 1.6 8.0 0.00 4.24 3.94 97 1011.7
20260501233039 15 329 1.6 12.9 0.00 4.24 3.94 97 1011.8
20260501231539 15 39 3.2 17.7 0.00 4.24 3.94 97 1010.0
20260501230030 15 58 3.2 12.9 0.00 4.24 3.94 97 1010.5
20260501224530 15 2 6.4 16.1 0.00 4.24 3.94 97 1010.6
20260501223028 16 115 3.2 16.1 0.00 4.24 3.94 97 1010.0
20260501221526 16 18 6.4 20.9 0.00 4.24 3.94 97 1009.8
20260501220038 16 30 3.2 19.3 0.00 4.24 3.94 97 1010.0
20260501214525 16 1 1.6 11.3 0.00 4.24 3.94 97 1010.4
20260501213032 16 52 1.6 9.7 0.00 4.24 3.94 98 1010.5
20260501211523 16 44 3.2 11.3 0.00 4.24 3.94 97 1010.4
20260501210022 16 321 0.0 9.7 0.00 4.24 3.94 97 1010.6
20260501204522 16 10 3.2 12.9 0.00 4.24 3.94 97 1008.9
20260501203019 16 7 3.2 14.5 0.00 4.24 3.94 97 1009.1
20260501201518 16 39 1.6 6.4 0.00 4.24 3.94 97 1009.5
20260501200018 16 27 1.6 8.0 0.00 4.24 3.94 97 1009.3
20260501194517 16 138 1.6 12.9 0.00 4.24 3.94 97 1008.6
20260501193032 16 37 1.6 11.3 0.00 4.24 3.94 97 1009.0
20260501191528 17 44 0.0 3.2 0.00 4.24 3.94 97 1009.1
20260501190042 16 23 1.6 14.5 0.00 4.24 3.94 97 1009.4
20260501184531 16 59 3.2 14.5 0.00 4.24 3.94 97 1008.7
20260501183020 17 4 3.2 17.7 0.46 4.24 3.94 97 1008.3
20260501181514 16 28 0.0 9.7 0.79 4.24 3.94 97 1009.2
20260501180013 16 61 4.8 19.3 0.86 4.24 3.94 97 1008.1
20260501174515 17 72 4.8 14.5 0.94 4.24 3.94 97 1009.1